Regional Weather Roundup
Issued by NWS

Home | Current Version | Previous Version | Graphics & Text | Print | Product List | Glossary On
Versions: 1 2 3 4 5 6 7 8 9 10 11 12 13 14 15 16 17 18 19 20 21 22 23 24 25 26 27 28 29 30 31 32 33 34 35 36 37 38 39 40 41 42 43 44 45 46 47 48 49 50
752
ASUS43 KTOP 261559
RWRKS

WEATHER ROUNDUP FOR KANSAS
NATIONAL WEATHER SERVICE GOODLAND KS
1100 AM CDT WED APR 26 2017

NOTE:  "FAIR" INDICATES FEW OR NO CLOUDS BELOW 12,000 FEET WITH NO
SIGNIFICANT WEATHER AND/OR OBSTRUCTIONS TO VISIBILITY.

KSZ001>006-013>018-027>032-041>047-261700-
NORTHWEST KANSAS

CITY           SKY/WX    TMP DP  RH WIND       PRES   REMARKS
GOODLAND       CLOUDY    40  28  62 N21G30    29.79S WCI  30
HAYS           PTSUNNY   44  29  55 NW21      29.75F
HILL CITY      MOSUNNY   46  29  51 N20G28    29.77F
RUSSELL        CLOUDY    45  30  55 N22G32    29.72S
$$

KSZ061>065-074>080-084>089-261700-
SOUTHWEST KANSAS

CITY           SKY/WX    TMP DP  RH WIND       PRES   REMARKS
DODGE CITY     CLOUDY    44  29  55 NW22G36   29.75S
ELKHART          N/A     43  27  53 N21         N/A
GARDEN CITY    CLOUDY    45  28  51 NW24G31   29.78S
GREAT BEND     CLOUDY    43  32  65 NW20G25   29.74S
LIBERAL        PTSUNNY   47  32  56 N25G31    29.78
$$

KSZ066>073-081>083-090>101-261700-
SOUTHEAST KANSAS

CITY           SKY/WX    TMP DP  RH WIND       PRES   REMARKS
CHANUTE        LGT RAIN  44  40  85 N13       29.64R
COFFEYVILLE    CLOUDY    46  42  86 N15G22    29.64R
HUTCHINSON     CLOUDY    45  33  63 N22       29.70R
MEDICINE LODGE   N/A     45  33  63 N21G26    29.71R
NEWTON         CLOUDY    43  35  73 N22       29.70R
PARSONS        CLOUDY    45  41  86 N21       29.63F
WICHITA INTL   CLOUDY    44  35  70 N22G30    29.68R
WICHITA JABRA  CLOUDY    44  36  73 N21G31    29.68S
WINFIELD       CLOUDY    45  38  76 N18       29.68R
$$

KSZ007>012-019>026-033>040-048>060-102>105-261700-
NORTHEAST KANSAS

CITY           SKY/WX    TMP DP  RH WIND       PRES   REMARKS
CONCORDIA      CLOUDY    44  34  67 N16G22    29.72S
EMPORIA        CLOUDY    43  36  76 N15G25    29.67R
LAWRENCE       CLOUDY    44  38  79 NW18G24   29.66R
MANHATTAN      CLOUDY    44  34  67 NW12G21   29.70R
OLATHE IND     CLOUDY    43  38  82 NW16      29.66R
OLATHE EXE     CLOUDY    42  39  89 NW15      29.64R
SALINA         PTSUNNY   46  34  62 N21G29    29.71F
TOPEKA BILLARD CLOUDY    45  38  76 NW12      29.67R
TOPEKA FORBES  CLOUDY    46  36  68 NW18      29.65S
$$




USA.gov is the U.S. government's official web portal to all federal, state and local government web resources and services.